Simultaneous Nadir Overpasses (SNOs) Predictions

Prediction of SNOs between METOP-A and TERRA Satellite Orbit:

Table of predicted SNOs for the next 14.0 days since TLE Epoch: 5/12/2017
Index Date (METOP-A) Time (METOP-A) Lat,Lon (METOP-A) SZA (METOP-A ) Date (TERRA) Time (TERRA) Lat,Lon (TERRA) SZA (TERRA ) Distance(km) Time Diff (sec)
1 05/14/2017 05:32:43 81.34, 144.82 65.75 05/14/2017 05:32:51 81.35, 145.02 65.78 3.32 8
2 05/14/2017 06:23:23 -81.34, -47.51 114.22 05/14/2017 06:22:18 -81.34, -47.50 114.26 0.51 65
3 05/17/2017 01:07:04 81.34,-148.63 65.11 05/17/2017 01:07:06 81.35,-148.50 65.13 2.38 2
4 05/17/2017 01:57:44 -81.35, 19.04 114.86 05/17/2017 01:56:33 -81.34, 19.01 114.90 0.47 71
5 05/19/2017 19:50:44 -81.34, 110.29 115.52 05/19/2017 19:51:54 -81.34, 110.17 115.49 2.09 70
6 05/19/2017 20:41:24 81.34, -82.11 64.51 05/19/2017 20:41:20 81.35, -82.07 64.52 1.00 4
7 05/22/2017 15:25:06 -81.34, 176.41 116.12 05/22/2017 15:26:09 -81.34, 176.59 116.07 3.03 63
8 05/22/2017 16:15:45 81.34, -15.60 63.96 05/22/2017 16:15:35 81.35, -15.68 63.95 1.34 10
9 05/25/2017 10:59:27 -81.34,-117.09 116.63 05/25/2017 11:00:24 -81.34,-117.03 116.60 0.93 57




NCC Satellite Simultaneous Nadir Overpasses (SNOs) Prediction Service
